Location: Hillern
(53.0557°N, 9.8577°E)
Time: 17:09:33
(UTC+00:00)

CZ-4C R/B - Pass Details

Date: 19 May 2025
Orbit: 425 x 537 km, 98.0° (Epoch: 16 June)

Event Time Altitude Azimuth Distance (km) Brightness Sun altitude
Rises 21:13:11 0° 22° (NNE) 2,618 7.4 -12.2°
Reaches altitude 10° 21:15:32 10° 35° (NE) 1,706 6.2 -12.4°
Maximum altitude 21:18:44 28° 95° (E) 950 4.2 -12.6°
Enters shadow 21:20:12 21° 135° (SE) 1,141 4.3 -12.7°
